DLH2EW EDDF-EPWA

Flight info

Callsign DLH2EW
Flight time 1h 26m
Altitude 37000
Route SULUS7S/18 SULUS L984 OKG DCT BALTU DCT LEGAZ DCT LAGAR DCT OKENO Q277 AGAVA
Aircraft A321/M-SDE2E3FGIJ1LORWXYZ/HB1

Departure

Time 2026-05-04 12:14
Airport Frankfurt Main Airport (EDDF)

Arrival

Time 2026-05-04 13:41
Airport Warsaw Chopin Airport (EPWA)
Time Latitude Longitude Altitude Speed Heading
2026-05-04 11:46 50.04534 8.56574 374 ft 0 kts 115°
2026-05-04 12:02 50.04538 8.56562 376 ft 2 kts 115°
2026-05-04 12:03 50.04542 8.56551 376 ft 2 kts 115°
2026-05-04 12:03 50.04548 8.56530 376 ft 2 kts 115°
2026-05-04 12:03 50.04554 8.56509 375 ft 2 kts 115°
2026-05-04 12:03 50.04560 8.56488 375 ft 2 kts 115°
2026-05-04 12:04 50.04567 8.56466 375 ft 2 kts 118°
2026-05-04 12:04 50.04578 8.56451 375 ft 1 kts 160°
2026-05-04 12:04 50.04582 8.56449 375 ft 0 kts 170°
2026-05-04 12:04 50.04559 8.56451 375 ft 4 kts 191°
2026-05-04 12:05 50.04530 8.56425 375 ft 4 kts 226°
2026-05-04 12:05 50.04514 8.56375 375 ft 6 kts 251°
2026-05-04 12:05 50.04505 8.56335 375 ft 1 kts 250°
2026-05-04 12:05 50.04504 8.56333 375 ft 0 kts 250°
2026-05-04 12:07 50.04504 8.56332 375 ft 0 kts 250°
2026-05-04 12:07 50.04490 8.56273 375 ft 11 kts 250°
2026-05-04 12:07 50.04455 8.56125 375 ft 15 kts 250°
2026-05-04 12:08 50.04384 8.56035 375 ft 14 kts 171°
2026-05-04 12:08 50.04299 8.56101 375 ft 13 kts 122°
2026-05-04 12:08 50.04266 8.56220 375 ft 12 kts 154°
2026-05-04 12:08 50.04171 8.56275 374 ft 18 kts 163°
2026-05-04 12:09 50.04105 8.56187 374 ft 12 kts 249°
2026-05-04 12:09 50.04073 8.56052 374 ft 15 kts 250°
2026-05-04 12:09 50.04029 8.55867 374 ft 21 kts 250°
2026-05-04 12:09 50.03973 8.55630 374 ft 25 kts 250°
2026-05-04 12:10 50.03912 8.55381 374 ft 23 kts 250°
2026-05-04 12:10 50.03856 8.55146 374 ft 22 kts 249°
2026-05-04 12:10 50.03803 8.54924 374 ft 22 kts 250°
2026-05-04 12:10 50.03739 8.54660 374 ft 27 kts 250°
2026-05-04 12:11 50.03676 8.54392 374 ft 25 kts 250°
2026-05-04 12:11 50.03616 8.54141 374 ft 26 kts 250°
2026-05-04 12:11 50.03549 8.53861 374 ft 27 kts 250°
2026-05-04 12:11 50.03484 8.53591 374 ft 25 kts 250°
2026-05-04 12:12 50.03424 8.53340 374 ft 24 kts 250°
2026-05-04 12:12 50.03367 8.53104 374 ft 22 kts 249°
2026-05-04 12:12 50.03313 8.52879 374 ft 21 kts 251°
2026-05-04 12:12 50.03263 8.52669 374 ft 20 kts 249°
2026-05-04 12:13 50.03155 8.52592 374 ft 26 kts 179°
2026-05-04 12:14 49.96022 8.54192 2762 ft 206 kts 124°
2026-05-04 12:15 49.95323 8.56198 3057 ft 218 kts 120°
2026-05-04 12:15 49.94587 8.58348 3261 ft 235 kts 117°
2026-05-04 12:15 49.94074 8.60837 3627 ft 247 kts 101°
2026-05-04 12:15 49.93902 8.63581 4006 ft 261 kts 95°
2026-05-04 12:16 49.93808 8.66423 4419 ft 272 kts 95°
2026-05-04 12:16 49.93410 8.69305 5034 ft 274 kts 119°
2026-05-04 12:16 49.92182 8.71461 5741 ft 271 kts 144°
2026-05-04 12:16 49.90622 8.73130 6449 ft 273 kts 147°
2026-05-04 12:17 49.89102 8.74890 7127 ft 276 kts 138°
2026-05-04 12:17 49.87854 8.77151 7832 ft 280 kts 125°
2026-05-04 12:17 49.86865 8.79733 8545 ft 283 kts 121°
2026-05-04 12:17 49.85909 8.82417 9247 ft 286 kts 121°
2026-05-04 12:18 49.84951 8.85115 9927 ft 289 kts 121°
2026-05-04 12:18 49.84006 8.87903 10471 ft 299 kts 114°
2026-05-04 12:18 49.83700 8.91197 10756 ft 321 kts 86°
2026-05-04 12:18 49.84177 8.94653 11103 ft 336 kts 76°
2026-05-04 12:19 49.84821 8.98154 11661 ft 343 kts 75°
2026-05-04 12:19 49.85457 9.01766 12325 ft 345 kts 77°
2026-05-04 12:19 49.86034 9.05326 12954 ft 348 kts 78°
2026-05-04 12:19 49.86589 9.09000 13561 ft 352 kts 78°
2026-05-04 12:20 49.87127 9.12747 14170 ft 356 kts 79°
2026-05-04 12:20 49.87648 9.16484 14745 ft 360 kts 79°
2026-05-04 12:20 49.88168 9.20289 15333 ft 363 kts 79°
2026-05-04 12:20 49.88682 9.24099 15897 ft 367 kts 79°
2026-05-04 12:21 49.89202 9.27975 16448 ft 370 kts 79°
2026-05-04 12:21 49.89725 9.31892 16998 ft 374 kts 79°
2026-05-04 12:21 49.90250 9.35846 17557 ft 377 kts 79°
2026-05-04 12:21 49.90778 9.39833 18095 ft 380 kts 79°
2026-05-04 12:22 49.91312 9.43882 18636 ft 383 kts 79°
2026-05-04 12:22 49.91846 9.47937 19158 ft 387 kts 79°
2026-05-04 12:22 49.92380 9.52009 19661 ft 390 kts 79°
2026-05-04 12:22 49.92922 9.56150 20153 ft 393 kts 79°
2026-05-04 12:23 49.93466 9.60318 20639 ft 396 kts 79°
2026-05-04 12:23 49.94008 9.64481 21118 ft 399 kts 79°
2026-05-04 12:23 49.94556 9.68701 21599 ft 401 kts 80°
2026-05-04 12:23 49.95111 9.72993 22069 ft 404 kts 81°
2026-05-04 12:24 49.95667 9.77301 22517 ft 407 kts 81°
2026-05-04 12:24 49.96218 9.81590 22946 ft 410 kts 81°
2026-05-04 12:24 49.96773 9.85937 23384 ft 413 kts 81°
2026-05-04 12:24 49.97331 9.90308 23794 ft 416 kts 81°
2026-05-04 12:25 49.97898 9.94779 24219 ft 419 kts 81°
2026-05-04 12:25 49.98459 9.99204 24608 ft 422 kts 81°
2026-05-04 12:25 49.99025 10.03685 24995 ft 425 kts 81°
2026-05-04 12:25 49.99595 10.08220 25374 ft 428 kts 81°
2026-05-04 12:26 50.00160 10.12725 25743 ft 430 kts 81°
2026-05-04 12:26 50.00734 10.17314 26126 ft 433 kts 81°
2026-05-04 12:26 50.01306 10.21912 26498 ft 435 kts 80°
2026-05-04 12:26 50.01885 10.26564 26863 ft 438 kts 80°
2026-05-04 12:27 50.02460 10.31209 27210 ft 440 kts 80°
2026-05-04 12:27 50.03033 10.35845 27552 ft 442 kts 80°
2026-05-04 12:27 50.03611 10.40547 27891 ft 444 kts 80°
2026-05-04 12:27 50.04194 10.45311 28225 ft 447 kts 80°
2026-05-04 12:28 50.04766 10.50009 28532 ft 449 kts 80°
2026-05-04 12:28 50.05347 10.54799 28846 ft 451 kts 81°
2026-05-04 12:28 50.05926 10.59589 29147 ft 453 kts 80°
2026-05-04 12:28 50.06508 10.64408 29445 ft 456 kts 80°
2026-05-04 12:29 50.07040 10.69280 29714 ft 457 kts 84°
2026-05-04 12:29 50.07398 10.74187 30001 ft 459 kts 87°
2026-05-04 12:29 50.07561 10.79108 30259 ft 460 kts 91°
2026-05-04 12:29 50.07580 10.84080 30517 ft 462 kts 92°
2026-05-04 12:30 50.07569 10.89113 30778 ft 464 kts 92°
2026-05-04 12:30 50.07554 10.94090 31051 ft 465 kts 92°
2026-05-04 12:30 50.07542 10.99114 31310 ft 467 kts 92°
2026-05-04 12:30 50.07531 11.04215 31630 ft 467 kts 92°
2026-05-04 12:31 50.07521 11.09205 32013 ft 466 kts 92°
2026-05-04 12:31 50.07510 11.14249 32396 ft 464 kts 92°
2026-05-04 12:31 50.07499 11.19208 32744 ft 463 kts 92°
2026-05-04 12:31 50.07484 11.24227 33071 ft 463 kts 92°
2026-05-04 12:32 50.07470 11.29184 33401 ft 462 kts 92°
2026-05-04 12:32 50.07432 11.39118 34029 ft 460 kts 92°
2026-05-04 12:32 50.07408 11.44128 34317 ft 460 kts 92°
2026-05-04 12:33 50.07382 11.49067 34602 ft 459 kts 92°
2026-05-04 12:33 50.07352 11.54007 34871 ft 459 kts 92°
2026-05-04 12:33 50.07320 11.58926 35092 ft 458 kts 92°
2026-05-04 12:33 50.07288 11.63894 35297 ft 459 kts 92°
2026-05-04 12:34 50.07258 11.68869 35457 ft 460 kts 92°
2026-05-04 12:34 50.07229 11.73848 35606 ft 461 kts 92°
2026-05-04 12:34 50.07196 11.78837 35765 ft 461 kts 92°
2026-05-04 12:34 50.07160 11.83795 35918 ft 462 kts 92°
2026-05-04 12:35 50.07120 11.88801 36064 ft 462 kts 92°
2026-05-04 12:35 50.07078 11.93794 36221 ft 463 kts 92°
2026-05-04 12:35 50.07035 11.98734 36364 ft 463 kts 92°
2026-05-04 12:35 50.06987 12.03795 36499 ft 464 kts 92°
2026-05-04 12:36 50.06939 12.08761 36637 ft 465 kts 92°
2026-05-04 12:36 50.06885 12.13789 36783 ft 465 kts 92°
2026-05-04 12:36 50.06826 12.18786 36942 ft 465 kts 92°
2026-05-04 12:37 50.06692 12.28870 36984 ft 466 kts 92°
2026-05-04 12:37 50.06558 12.38947 36985 ft 467 kts 91°
2026-05-04 12:38 50.06779 12.49067 36988 ft 468 kts 86°
2026-05-04 12:38 50.07312 12.54064 36986 ft 469 kts 75°
2026-05-04 12:38 50.08337 12.58806 36993 ft 470 kts 67°
2026-05-04 12:39 50.10883 12.68066 36987 ft 470 kts 66°
2026-05-04 12:39 50.13467 12.77387 36991 ft 470 kts 67°
2026-05-04 12:40 50.16020 12.86787 36993 ft 470 kts 67°
2026-05-04 12:40 50.18539 12.96165 36997 ft 470 kts 67°
2026-05-04 12:41 50.21052 13.05577 36992 ft 470 kts 67°
2026-05-04 12:41 50.23539 13.14934 36987 ft 469 kts 67°
2026-05-04 12:42 50.26041 13.24388 36974 ft 469 kts 67°
2026-05-04 12:42 50.28514 13.33766 36965 ft 469 kts 67°
2026-05-04 12:43 50.30988 13.43195 36959 ft 469 kts 67°
2026-05-04 12:43 50.33460 13.52651 36949 ft 470 kts 67°
2026-05-04 12:44 50.35911 13.62070 36947 ft 470 kts 67°
2026-05-04 12:44 50.38370 13.71553 36952 ft 470 kts 68°
2026-05-04 12:45 50.40815 13.81021 36952 ft 470 kts 68°
2026-05-04 12:45 50.43246 13.90474 36951 ft 469 kts 68°
2026-05-04 12:46 50.45672 13.99948 36952 ft 469 kts 68°
2026-05-04 12:46 50.48081 14.09401 36950 ft 469 kts 68°
2026-05-04 12:47 50.50496 14.18914 36949 ft 469 kts 67°
2026-05-04 12:47 50.52889 14.28381 36951 ft 469 kts 67°
2026-05-04 12:48 50.55278 14.37873 36952 ft 469 kts 67°
2026-05-04 12:48 50.57680 14.47452 36953 ft 469 kts 67°
2026-05-04 12:49 50.60051 14.56952 36959 ft 469 kts 67°
2026-05-04 12:49 50.62411 14.66451 36959 ft 468 kts 68°
2026-05-04 12:50 50.64769 14.75983 36962 ft 468 kts 68°
2026-05-04 12:50 50.67129 14.85557 36965 ft 469 kts 68°
2026-05-04 12:51 50.69464 14.95081 36967 ft 468 kts 68°
2026-05-04 12:51 50.71798 15.04643 36969 ft 468 kts 68°
2026-05-04 12:52 50.74125 15.14214 36971 ft 468 kts 68°
2026-05-04 12:52 50.76447 15.23810 36971 ft 468 kts 68°
2026-05-04 12:53 50.78710 15.33418 36980 ft 467 kts 69°
2026-05-04 12:53 50.80924 15.43034 36985 ft 467 kts 69°
2026-05-04 12:54 50.83120 15.52614 36991 ft 467 kts 69°
2026-05-04 12:54 50.85332 15.62310 36990 ft 466 kts 69°
2026-05-04 12:55 50.87489 15.71796 36993 ft 466 kts 70°
2026-05-04 12:55 50.89670 15.81434 36989 ft 467 kts 70°
2026-05-04 12:56 50.91837 15.91056 36980 ft 467 kts 69°
2026-05-04 12:56 50.94020 16.00782 36972 ft 467 kts 70°
2026-05-04 12:57 50.96179 16.10451 36965 ft 467 kts 70°
2026-05-04 12:57 50.98325 16.20112 36959 ft 466 kts 70°
2026-05-04 12:58 51.00474 16.29827 36957 ft 466 kts 70°
2026-05-04 12:58 51.02603 16.39500 36957 ft 466 kts 70°
2026-05-04 12:59 51.04728 16.49200 36950 ft 467 kts 70°
2026-05-04 12:59 51.06862 16.58984 36947 ft 467 kts 70°
2026-05-04 13:00 51.08965 16.68674 36945 ft 466 kts 70°
2026-05-04 13:00 51.11075 16.78440 36942 ft 466 kts 70°
2026-05-04 13:01 51.13180 16.88228 36939 ft 466 kts 70°
2026-05-04 13:01 51.15263 16.97968 36937 ft 466 kts 70°
2026-05-04 13:02 51.17341 17.07727 36934 ft 465 kts 70°
2026-05-04 13:02 51.19407 17.17477 36935 ft 466 kts 70°
2026-05-04 13:03 51.21460 17.27216 36937 ft 465 kts 70°
2026-05-04 13:03 51.23514 17.36999 36938 ft 465 kts 70°
2026-05-04 13:04 51.25557 17.46781 36938 ft 465 kts 70°
2026-05-04 13:04 51.27586 17.56542 36939 ft 464 kts 70°
2026-05-04 13:05 51.29608 17.66312 36938 ft 463 kts 71°
2026-05-04 13:05 51.31625 17.76113 36939 ft 463 kts 71°
2026-05-04 13:06 51.33632 17.85918 36942 ft 463 kts 71°
2026-05-04 13:06 51.35624 17.95696 36947 ft 463 kts 71°
2026-05-04 13:07 51.37611 18.05492 36511 ft 463 kts 71°
2026-05-04 13:07 51.38590 18.10337 36050 ft 461 kts 71°
2026-05-04 13:07 51.39567 18.15186 35396 ft 464 kts 71°
2026-05-04 13:07 51.40563 18.20136 34671 ft 467 kts 71°
2026-05-04 13:08 51.41545 18.25028 33892 ft 469 kts 71°
2026-05-04 13:08 51.42540 18.29996 33154 ft 469 kts 71°
2026-05-04 13:08 51.43528 18.34950 32500 ft 467 kts 71°
2026-05-04 13:08 51.44512 18.39891 31842 ft 466 kts 71°
2026-05-04 13:09 51.45480 18.44773 31162 ft 465 kts 71°
2026-05-04 13:09 51.46452 18.49687 30551 ft 462 kts 71°
2026-05-04 13:09 51.47407 18.54527 30143 ft 455 kts 71°
2026-05-04 13:09 51.48357 18.59358 29692 ft 451 kts 71°
2026-05-04 13:10 51.49285 18.64082 29240 ft 448 kts 71°
2026-05-04 13:10 51.50226 18.68878 28755 ft 444 kts 72°
2026-05-04 13:10 51.51140 18.73551 28306 ft 440 kts 72°
2026-05-04 13:10 51.52052 18.78231 27860 ft 435 kts 72°
2026-05-04 13:11 51.52940 18.82797 27420 ft 431 kts 72°
2026-05-04 13:11 51.53827 18.87371 26983 ft 427 kts 72°
2026-05-04 13:11 51.54701 18.91882 26544 ft 424 kts 72°
2026-05-04 13:11 51.55578 18.96423 26109 ft 420 kts 72°
2026-05-04 13:12 51.56433 19.00860 25665 ft 417 kts 72°
2026-05-04 13:12 51.57285 19.05286 25218 ft 413 kts 72°
2026-05-04 13:12 51.58118 19.09635 24754 ft 410 kts 72°
2026-05-04 13:12 51.58953 19.13996 24308 ft 405 kts 72°
2026-05-04 13:13 51.59777 19.18313 23888 ft 401 kts 72°
2026-05-04 13:13 51.60583 19.22546 23463 ft 397 kts 72°
2026-05-04 13:13 51.61385 19.26766 23052 ft 394 kts 72°
2026-05-04 13:13 51.62182 19.30970 22585 ft 391 kts 72°
2026-05-04 13:14 51.62966 19.35111 22120 ft 389 kts 72°
2026-05-04 13:14 51.63744 19.39228 21662 ft 387 kts 72°
2026-05-04 13:14 51.64521 19.43352 21218 ft 385 kts 72°
2026-05-04 13:14 51.65295 19.47469 20759 ft 384 kts 72°
2026-05-04 13:15 51.66063 19.51560 20296 ft 383 kts 72°
2026-05-04 13:15 51.66826 19.55636 19816 ft 382 kts 73°
2026-05-04 13:15 51.67588 19.59714 19344 ft 382 kts 73°
2026-05-04 13:15 51.68350 19.63807 18869 ft 382 kts 73°
2026-05-04 13:16 51.69113 19.67909 18382 ft 382 kts 73°
2026-05-04 13:16 51.69875 19.72013 17901 ft 381 kts 73°
2026-05-04 13:16 51.70630 19.76094 17426 ft 381 kts 73°
2026-05-04 13:16 51.71385 19.80177 16932 ft 381 kts 74°
2026-05-04 13:17 51.72125 19.84197 16479 ft 380 kts 74°
2026-05-04 13:17 51.72874 19.88273 16005 ft 379 kts 74°
2026-05-04 13:17 51.73621 19.92344 15551 ft 378 kts 74°
2026-05-04 13:17 51.74361 19.96386 15075 ft 377 kts 74°
2026-05-04 13:18 51.75100 20.00432 14620 ft 376 kts 74°
2026-05-04 13:18 51.75836 20.04466 14158 ft 375 kts 74°
2026-05-04 13:18 51.76560 20.08444 13714 ft 373 kts 74°
2026-05-04 13:18 51.77288 20.12451 13279 ft 372 kts 74°
2026-05-04 13:19 51.78018 20.16485 12845 ft 370 kts 74°
2026-05-04 13:19 51.78731 20.20430 12419 ft 368 kts 74°
2026-05-04 13:19 51.79437 20.24348 11997 ft 366 kts 74°
2026-05-04 13:19 51.80146 20.28290 11577 ft 364 kts 74°
2026-05-04 13:20 51.80848 20.32199 11157 ft 361 kts 74°
2026-05-04 13:20 51.81538 20.36051 10748 ft 359 kts 74°
2026-05-04 13:20 51.82229 20.39917 10360 ft 356 kts 74°
2026-05-04 13:20 51.82897 20.43664 10177 ft 345 kts 74°
2026-05-04 13:21 51.83549 20.47327 10052 ft 334 kts 74°
2026-05-04 13:21 51.84180 20.50876 9901 ft 324 kts 74°
2026-05-04 13:21 51.84797 20.54362 9606 ft 320 kts 74°
2026-05-04 13:21 51.85401 20.57783 9332 ft 315 kts 74°
2026-05-04 13:22 51.85991 20.61123 9053 ft 311 kts 74°
2026-05-04 13:22 51.86581 20.64471 8779 ft 306 kts 74°
2026-05-04 13:22 51.87162 20.67776 8512 ft 302 kts 75°
2026-05-04 13:22 51.87733 20.71026 8183 ft 297 kts 75°
2026-05-04 13:23 51.88292 20.74217 7774 ft 296 kts 75°
2026-05-04 13:23 51.88844 20.77379 7374 ft 294 kts 75°
2026-05-04 13:23 51.89401 20.80567 6961 ft 292 kts 75°
2026-05-04 13:23 51.89943 20.83674 6569 ft 290 kts 75°
2026-05-04 13:24 51.90489 20.86818 6121 ft 290 kts 75°
2026-05-04 13:24 51.91029 20.89932 5673 ft 290 kts 75°
2026-05-04 13:24 51.91570 20.93054 5274 ft 289 kts 75°
2026-05-04 13:25 51.92614 20.99086 4968 ft 265 kts 75°
2026-05-04 13:25 51.93164 21.01865 4847 ft 254 kts 68°
2026-05-04 13:25 51.93910 21.04438 4580 ft 251 kts 62°
2026-05-04 13:25 51.94729 21.06930 4277 ft 251 kts 61°
2026-05-04 13:26 51.95556 21.09399 3971 ft 253 kts 61°
2026-05-04 13:26 51.96565 21.11715 3607 ft 254 kts 37°
2026-05-04 13:26 51.98152 21.12765 3264 ft 248 kts 358°
2026-05-04 13:26 51.99753 21.12048 3020 ft 234 kts 324°
2026-05-04 13:27 52.01059 21.10576 2996 ft 221 kts 321°
2026-05-04 13:27 52.02276 21.09276 3069 ft 201 kts 324°
2026-05-04 13:27 52.03463 21.08175 2880 ft 194 kts 327°
2026-05-04 13:27 52.04648 21.07140 2659 ft 188 kts 327°
2026-05-04 13:28 52.05777 21.06163 2422 ft 183 kts 327°
2026-05-04 13:28 52.06886 21.05197 2175 ft 179 kts 327°
2026-05-04 13:28 52.07961 21.04258 1963 ft 169 kts 327°
2026-05-04 13:28 52.08955 21.03391 1746 ft 153 kts 327°
2026-05-04 13:29 52.09866 21.02593 1542 ft 147 kts 326°
2026-05-04 13:29 52.10769 21.01797 1373 ft 146 kts 327°
2026-05-04 13:29 52.11665 21.01013 1183 ft 146 kts 327°
2026-05-04 13:29 52.12552 21.00232 1020 ft 145 kts 327°
2026-05-04 13:30 52.13444 20.99454 837 ft 146 kts 327°
2026-05-04 13:30 52.14331 20.98681 640 ft 145 kts 328°
2026-05-04 13:30 52.15230 20.97897 451 ft 145 kts 328°
2026-05-04 13:30 52.16106 20.97124 358 ft 135 kts 329°
2026-05-04 13:31 52.16946 20.96389 444 ft 153 kts 328°
2026-05-04 13:31 52.17926 20.95543 1081 ft 164 kts 327°
2026-05-04 13:31 52.18897 20.94652 1988 ft 160 kts 324°
2026-05-04 13:31 52.19849 20.93773 2578 ft 160 kts 326°
2026-05-04 13:32 52.20805 20.92786 2919 ft 171 kts 310°
2026-05-04 13:32 52.21342 20.90975 2995 ft 195 kts 272°
2026-05-04 13:32 52.21030 20.88746 2963 ft 212 kts 237°
2026-05-04 13:32 52.19897 20.87051 2991 ft 237 kts 211°
2026-05-04 13:33 52.18275 20.86318 2981 ft 248 kts 182°
2026-05-04 13:33 52.16594 20.86950 2990 ft 254 kts 161°
2026-05-04 13:33 52.14965 20.88135 2987 ft 256 kts 158°
2026-05-04 13:33 52.13363 20.89405 2988 ft 256 kts 157°
2026-05-04 13:34 52.11768 20.90691 2988 ft 256 kts 157°
2026-05-04 13:34 52.10182 20.91971 2988 ft 255 kts 157°
2026-05-04 13:34 52.08584 20.93258 2989 ft 255 kts 157°
2026-05-04 13:34 52.07003 20.94532 2987 ft 254 kts 157°
2026-05-04 13:35 52.05418 20.95805 2988 ft 253 kts 157°
2026-05-04 13:35 52.02443 20.98217 2979 ft 228 kts 156°
2026-05-04 13:35 52.01068 20.99345 2981 ft 217 kts 157°
2026-05-04 13:36 51.99719 21.00457 2992 ft 217 kts 157°
2026-05-04 13:36 51.98433 21.01742 2977 ft 221 kts 136°
2026-05-04 13:36 51.97791 21.04012 2970 ft 228 kts 93°
2026-05-04 13:36 51.98218 21.06447 2991 ft 229 kts 52°
2026-05-04 13:37 51.99375 21.08124 3013 ft 227 kts 31°
2026-05-04 13:37 52.00778 21.09344 2977 ft 225 kts 10°
2026-05-04 13:37 52.02285 21.09296 2995 ft 212 kts 338°
2026-05-04 13:37 52.03151 21.08683 2991 ft 198 kts 328°
2026-05-04 13:38 52.04699 21.07201 2664 ft 191 kts 324°
2026-05-04 13:38 52.05835 21.06125 2416 ft 187 kts 326°
2026-05-04 13:38 52.06952 21.05126 2180 ft 180 kts 327°
2026-05-04 13:38 52.08002 21.04213 1955 ft 163 kts 327°
2026-05-04 13:39 52.08968 21.03375 1714 ft 150 kts 326°
2026-05-04 13:39 52.09861 21.02593 1550 ft 146 kts 326°
2026-05-04 13:39 52.10757 21.01806 1364 ft 147 kts 326°
2026-05-04 13:39 52.11656 21.01018 1200 ft 146 kts 327°
2026-05-04 13:40 52.12549 21.00238 1006 ft 145 kts 327°
2026-05-04 13:40 52.13435 20.99464 823 ft 145 kts 328°
2026-05-04 13:40 52.14324 20.98696 593 ft 145 kts 328°
2026-05-04 13:40 52.15212 20.97911 478 ft 143 kts 328°
2026-05-04 13:41 52.16066 20.97154 351 ft 134 kts 328°
2026-05-04 13:41 52.16735 20.96572 350 ft 68 kts 335°
2026-05-04 13:41 52.16998 20.96517 350 ft 23 kts
2026-05-04 13:42 52.17134 20.96710 350 ft 13 kts 62°
2026-05-04 13:42 52.17141 20.96852 350 ft 4 kts 162°
2026-05-04 13:42 52.17083 20.96909 350 ft 17 kts 149°
2026-05-04 13:42 52.16990 20.96995 350 ft 4 kts 141°
2026-05-04 13:43 52.16988 20.97044 350 ft 4 kts 79°
2026-05-04 13:43 52.16995 20.97099 350 ft 5 kts 78°
2026-05-04 13:43 52.17001 20.97142 350 ft 2 kts 77°
2026-05-04 13:43 52.17001 20.97143 350 ft 0 kts 77°
2026-05-04 13:44 52.17001 20.97144 350 ft 0 kts 77°